Tracking 31027 objects as of 19-Jul-2025
HD Live streaming from Space Station
objects crossing your sky now

COSMOS 2251 DEB

Track COSMOS 2251 DEB now!
10-day predictions


NORAD ID: 34434
Int'l Code: 1993-036SB
Perigee: 734.3 km
Apogee: 1,154.6 km
Inclination: 74.1 °
Period: 103.8 minutes
Semi major axis: 7315 km
RCS: 0.0146 m2 (small)
Launch date: June 16, 1993
Source: Commonwealth of Independent States (former USSR) (CIS)
Launch site: PLESETSK MISSILE AND SPACE COMPLEX (PKMTR)

Note: This is SATELLITE DEBRIS
Your satellite tracking list
FENGYUN 1C DEB
Track 1 satellite(s)




NASA's NSSDC Master Catalog

Two Line Element Set (TLE):
1 34434U 93036SB  25199.63570410  .00002036  00000-0  12552-2 0  9999
2 34434  74.0602 259.8178 0287266  68.8782  81.8714 13.87536857819245
Source of the keplerian elements: AFSPC